{"data":{"norad_id":58859,"intl_designator":"2024-019G","name":"STARLINK-31197","alt_names":[],"object_type":"PAYLOAD","status":"ACTIVE","operator":null,"country":"US","launch_date":"2024-01-29","launch_site_code":"AFETR","launch_vehicle":null,"mission":null,"orbit_class":"UNKNOWN","rcs_meters":null,"size_class":null,"mass_kg":null,"dimensions":null,"purposes":["comms"],"wikipedia_slug":null,"has_3d_model":false,"image_url":null,"decayed_at":null,"tle_current":{"epoch":"2026-05-24T13:37:47.862048Z","epoch_age_seconds":116353,"freshness":"FRESH","line1":"1 58859U 24019G   26144.56791507  .00001164  00000+0  51807-4 0  9994","line2":"2 58859  43.0020 180.6935 0001474 269.6428  90.4255 15.27582843130689","mean_motion":15.27582843,"eccentricity":0.0001474,"inclination_deg":43.002,"raan_deg":180.6935,"arg_perigee_deg":269.6428,"mean_anomaly_deg":90.4255,"bstar":5.1807e-5,"rev_number":13068,"period_min":94.266573272845,"perigee_km":482.02924551234,"apogee_km":484.05192066384,"semimajor_km":6861.1775830881,"source":"CELESTRAK","updated_at":"2026-05-25T13:38:18.758523Z"}}}